Content
SEND FEEDBACK

Daily
Averages
Monthly
Summary
United Kingdom

CLACTON ON SEA, ENGLAND


Home > Europe > United Kingdom > England
Elevation: 88 feet     Latitude: 52 07N     Longitude: 001 26E

WEATHER
 
SELECT A DAY
Number of Records: 69,624;   Date Range: 8/10/96 - 11/21/14
 
SHARE

PRINT THIS DATA

[ ← Previous Day ]
WEATHER ALMANAC - SEPTEMBER 18, 2013
[ Next Day → ]
[ °C ]   °F
Weather ElementAverageHighLow
Temperature51 °F59 °F (3:50 pm)44 °F (3:50 am)
Dewpoint43.8 °F46.4 °F (12:50 am)41 °F (3:50 pm)
Humidity76.6 %100 % (4:50 am)42 % (3:50 pm)
Barometer29.61 in29.83 in (11:50 pm)29.39 in (12:50 am)
Wind Speed10.1 mph17.3 mph (2:50 pm)
Weather ElementAverage
Visibility9.4 mi
Wind DirectionWNW (297.5 °)

Weather ElementTotal
Precipitation---
Heating Degree Days13.5 (Base 65)
Growing Degree Days1.5 (Base 50)
Averaged from 32 records on September 18, 2013
WEATHER CONDITIONS BREAKOUT
WIND DIRECTION BREAKOUT
WEATHER BY HOUR - SEPTEMBER 18, 2013
[ °C ]   °F
Local TimeTemperatureDewpointHumidityBarometerVisibilityWind DirectionWind SpeedGust SpeedPrecipitationEventsConditions
12:50 AM48.2 °F46.4 °F93 %29.39 in6.2 miNNW (340°)6.9 mphMostly Cloudy
1:50 AM48.2 °F46.4 °F93 %29.42 in6.2 miNNW (330°)8.1 mphMostly Cloudy
2:50 AM48.2 °F44.6 °F87 %29.44 in6.2 miNW (320°)8.1 mphScattered Clouds
3:50 AM44.0 °F44.0 °F97 %29.47 in7.0 miWNW (300°)6.9 mphScattered Clouds
3:50 AM44.6 °F42.8 °F93 %29.44 in6.2 miWNW (300°)6.9 mphScattered Clouds
4:50 AM44.6 °F44.6 °F100 %29.47 in2.5 miWNW (300°)9.2 mphScattered Clouds
5:50 AM46.4 °F44.6 °F93 %29.47 in3.1 miNW (320°)6.9 mphMostly Cloudy
6:50 AM46.4 °F44.6 °F93 %29.50 in3.1 miWNW (300°)5.8 mphMostly Cloudy
6:50 AM46.0 °F45.0 °F96 %29.52 in3.0 miWNW (300°)5.8 mphMist
7:25 AM46.4 °F46.4 °F100 %29.50 in3.7 miWNW (300°)6.9 mphMostly Cloudy
7:50 AM48.2 °F46.4 °F93 %29.53 in5.0 miWNW (300°)6.9 mphMostly Cloudy
8:50 AM48.2 °F46.4 °F93 %29.53 in6.2 miWNW (300°)8.1 mphMostly Cloudy
9:50 AM52.0 °F46.0 °F74 %29.58 in16.0 miNW (310°)11.5 mphScattered Clouds
9:50 AM51.8 °F46.4 °F82 %29.56 in6.2 miNW (310°)11.5 mphPartly Cloudy
10:50 AM53.6 °F44.6 °F72 %29.59 in6.2 miNW (310°)11.5 mphPartly Cloudy
11:50 AM57.2 °F44.6 °F63 %29.59 in6.2 miWNW (290°)11.5 mphPartly Cloudy
12:50 PM57.2 °F42.8 °F59 %29.62 in6.2 miWNW (290°)12.7 mphMostly Cloudy
12:50 PM57.0 °F43.0 °F49 %29.62 in28.0 miWNW (290°)12.7 mphMostly Cloudy
1:50 PM57.2 °F44.6 °F63 %29.62 in6.2 miWNW (300°)12.7 mphMostly Cloudy
2:50 PM55.4 °F42.8 °F63 %29.65 in6.2 miWNW (300°)17.3 mphMostly Cloudy
3:50 PM58.0 °F41.0 °F42 %29.66 in28.0 miWNW (300°)12.7 mphPartly Cloudy
3:50 PM59.0 °F41.0 °F51 %29.65 in6.2 miWNW (300°)12.7 mphMostly Cloudy
4:50 PM57.2 °F42.8 °F59 %29.68 in6.2 miWNW (290°)16.1 mphMostly Cloudy
5:50 PM57.2 °F42.8 °F59 %29.68 in6.2 miWNW (290°)15.0 mphMostly Cloudy
6:50 PM53.6 °F42.8 °F67 %29.71 in6.2 miWNW (290°)11.5 mphScattered Clouds
6:50 PM54.0 °F43.0 °F57 %29.73 in31.0 miWNW (290°)11.5 mphPartly Cloudy
7:50 PM51.8 °F41.0 °F67 %29.74 inWNW (290°)10.4 mphClear
8:50 PM46.4 °F41.0 °F81 %29.77 inWest (260°)6.9 mphClear
9:50 PM48.0 °F42.0 °F72 %29.81 in31.0 miWest (270°)9.2 mphPartly Cloudy
9:50 PM48.2 °F42.8 °F82 %29.80 inWest (270°)9.2 mphClear
10:50 PM50.0 °F42.8 °F76 %29.80 inWest (280°)10.4 mphClear
11:50 PM48.2 °F42.8 °F82 %29.83 inWest (280°)8.1 mphClear
Hourly data recorded from EGUW, located miles away from Clacton on Sea, England







STORIES FROM OUR PARTNERS